Portland, ME

3:45 AM EST on December 14, 2017 (GMT -0500)
Portland International

Weather History for KPWM - February, 2014

Change the Weather History Date:

Monday, February 10, 2014

  Actual Average Record
Temperature  
Mean Temperature 15 °F 24 °F  
Max Temperature 25 °F 34 °F 52 °F (1955)
Min Temperature 4 °F 15 °F -19 °F (1948)
Degree Days  
Heating Degree Days 50 41  
Month to date heating degree days 425 415  
Since 1 July heating degree days 4469 4351  
Cooling Degree Days 0 0  
Month to date cooling degree days 0 0  
Year to date cooling degree days 0 0  
Moisture  
Dew Point 13 °F    
Average Humidity 70    
Maximum Humidity 92    
Minimum Humidity 47    
Precipitation  
Precipitation 0.18 in 0.11 in 2.95 in (1885)
Month to date precipitation 0.98 1.08  
Year to date precipitation 5.03 4.46  
Snow  
Snow 4.20 in 0.50 in 9.00 in (2005)
Month to date snowfall 13.7 4.6  
Since 1 July snowfall 58.0 38.9  
Snow Depth 10.00 in    
Sea Level Pressure  
Sea Level Pressure 29.99 in    
Wind  
Wind Speed 8 mph (NNW)    
Max Wind Speed 17 mph    
Max Gust Speed 21 mph    
Visibility 5 miles    
Events Snow    
T = Trace of Precipitation, MM = Missing Value Source: NWS Daily Summary

Daily Weather History Graph

Daily Weather History Graph

Search for Another Location

Airport or City:

Trip Planner

Search our weather history database for the weather conditions in past years. The results will help you decide how hot, cold, wet, or windy it might be!

Date:

Astronomy

Feb. 10, 2014 Rise Set
Actual Time 6:46 AM EST 5:04 PM EST
Civil Twilight 6:17 AM EST 5:34 PM EST
Nautical Twilight 5:43 AM EST 6:08 PM EST
Astronomical Twilight 5:09 AM EST 6:41 PM EST
Moon 1:27 PM EST (2/10) 3:40 AM EST (2/10)
Length of Visible Light 11h 17m
Length of Day
10h 17m
Waxing Gibbous, 84% of the Moon is Illuminated
Feb 10
Waxing Gibbous
Feb 14
Full
Feb 22
Last Quarter
Mar 1
New
Mar 8
First Quarter

Hourly Weather History & Observations

Time (EST) Temp. Windchill Dew Point Humidity Pressure Visibility Wind Dir Wind Speed Gust Speed Precip Events Conditions
12:02 AM 21.9 °F 15.7 °F 19.9 °F 92% 29.95 in 0.8 mi North 4.6 mph - 0.01 in Snow Light Snow
12:11 AM 21.9 °F 14.5 °F 19.9 °F 92% 29.94 in 0.8 mi North 5.8 mph - 0.01 in Snow Light Snow
12:17 AM 21.9 °F 14.5 °F 19.0 °F 89% 29.94 in 1.0 mi North 5.8 mph - 0.02 in Snow Light Snow
12:51 AM 21.0 °F 13.4 °F 19.0 °F 92% 29.94 in 1.0 mi North 5.8 mph - 0.03 in Snow Light Snow
1:44 AM 21.0 °F 12.4 °F 18.0 °F 88% 29.92 in 1.5 mi North 6.9 mph - 0.03 in Snow Light Snow
1:51 AM 21.0 °F 13.4 °F 18.0 °F 88% 29.92 in 1.5 mi North 5.8 mph - 0.03 in Snow Light Snow
2:04 AM 21.0 °F 13.4 °F 18.0 °F 88% 29.92 in 1.2 mi North 5.8 mph - 0.01 in Snow Light Snow
2:12 AM 21.0 °F 12.4 °F 18.0 °F 88% 29.91 in 1.5 mi North 6.9 mph - 0.01 in Snow Light Snow
2:25 AM 21.0 °F 12.4 °F 18.0 °F 88% 29.91 in 1.2 mi North 6.9 mph - 0.02 in Snow Light Snow
2:36 AM 19.9 °F 11.1 °F 18.0 °F 92% 29.90 in 1.8 mi North 6.9 mph - 0.02 in Snow Light Snow
2:46 AM 19.4 °F 10.4 °F 17.6 °F 93% 29.90 in 1.5 mi North 6.9 mph - 0.02 in Snow Light Snow
2:51 AM 19.9 °F 10.1 °F 18.0 °F 92% 29.91 in 1.5 mi North 8.1 mph - 0.03 in Snow Light Snow
3:19 AM 19.9 °F 9.3 °F 17.1 °F 89% 29.89 in 1.0 mi North 9.2 mph - 0.00 in Snow Light Snow
3:46 AM 19.4 °F 9.5 °F 17.6 °F 93% 29.90 in 1.5 mi North 8.1 mph - 0.01 in Snow Light Snow
3:51 AM 19.9 °F 10.1 °F 17.1 °F 89% 29.90 in 1.5 mi North 8.1 mph - 0.01 in Snow Light Snow
4:06 AM 19.9 °F 10.1 °F 17.1 °F 89% 29.90 in 1.2 mi North 8.1 mph - 0.01 in Snow Light Snow
4:51 AM 19.9 °F 11.1 °F 17.1 °F 89% 29.90 in 1.0 mi North 6.9 mph - 0.02 in Snow Light Snow
5:38 AM 19.9 °F 10.1 °F 17.1 °F 89% 29.90 in 1.5 mi NNW 8.1 mph - 0.04 in Snow Light Snow
5:51 AM 19.9 °F 10.1 °F 17.1 °F 89% 29.91 in 1.5 mi NNW 8.1 mph - 0.04 in Snow Light Snow
6:37 AM 19.9 °F 9.3 °F 17.1 °F 89% 29.92 in 1.5 mi NNW 9.2 mph - 0.01 in Snow Light Snow
6:51 AM 19.9 °F 8.6 °F 16.0 °F 85% 29.93 in 1.5 mi NNW 10.4 mph - 0.01 in Snow Light Snow
7:51 AM 19.0 °F 6.8 °F 15.1 °F 85% 29.96 in 8.0 mi North 11.5 mph - 0.01 in   Mostly Cloudy
8:51 AM 19.9 °F 8.6 °F 15.1 °F 81% 29.97 in 10.0 mi North 10.4 mph - 0.00 in   Partly Cloudy
9:51 AM 21.0 °F 9.9 °F 14.0 °F 74% 29.99 in 10.0 mi NNW 10.4 mph - N/A   Scattered Clouds
10:51 AM 24.1 °F 11.5 °F 12.9 °F 62% 30.01 in 10.0 mi North 15.0 mph - N/A   Scattered Clouds
11:51 AM 24.1 °F 16.0 °F 10.9 °F 57% 30.01 in 10.0 mi WNW 6.9 mph - N/A   Mostly Cloudy
12:51 PM 24.1 °F 13.1 °F 10.0 °F 55% 29.99 in 10.0 mi NNW 11.5 mph - N/A   Mostly Cloudy
1:51 PM 23.0 °F 11.1 °F 10.0 °F 58% 30.00 in 10.0 mi NW 12.7 mph - N/A   Mostly Cloudy
2:51 PM 23.0 °F 11.1 °F 9.0 °F 55% 30.02 in 10.0 mi NNW 12.7 mph - N/A   Overcast
3:51 PM 23.0 °F 12.4 °F 8.1 °F 53% 30.04 in 10.0 mi NNW 10.4 mph - N/A   Overcast
4:51 PM 21.9 °F 10.4 °F 6.1 °F 51% 30.05 in 10.0 mi NNW 11.5 mph - N/A   Scattered Clouds
5:51 PM 21.0 °F 16.2 °F 5.0 °F 50% 30.09 in 10.0 mi NNW 3.5 mph - N/A   Partly Cloudy
6:51 PM 19.0 °F 12.3 °F 5.0 °F 54% 30.12 in 10.0 mi WNW 4.6 mph - N/A   Scattered Clouds
7:51 PM 16.0 °F 7.4 °F 5.0 °F 62% 30.14 in 10.0 mi WNW 5.8 mph - N/A   Clear
8:51 PM 15.1 °F 7.7 °F 3.9 °F 61% 30.16 in 10.0 mi NW 4.6 mph - N/A   Clear
9:51 PM 12.9 °F 3.8 °F 1.9 °F 62% 30.17 in 10.0 mi NW 5.8 mph - N/A   Clear
10:51 PM 9.0 °F - 1.9 °F 73% 30.18 in 10.0 mi Calm Calm - N/A   Clear
11:51 PM 6.1 °F -0.9 °F 1.0 °F 80% 30.19 in 10.0 mi WNW 3.5 mph - N/A   Clear